星链-33852 (STARLINK-33852)

导读

STARLINK-33852是美国于北京时间2025年4月25日发射的星链卫星,星链计划是SpaceX推进的低轨卫星互联网项目,旨在为全球提供高速低延迟网络服务。这颗卫星补充了星链低轨卫星星座规模,持续完善全球覆盖能力,进一步推动天地一体化网络建设。

Basic Information
目录编号:
63644
目录名称:
STARLINK-33852
国际标识:
2025-083L
轨道中心:
EARTH
卫星名称:
星链-33852
卫星全名:
星链-33852 (STARLINK-33852)
卫星状态:
在轨 (已飞行497 天)
发射日期:
2025-04-25 UTC
国别 :
美国 (US)
星等 :
--
Orbit Information
数据来源 国际轨道数据
星历时间: 2026-09-03T22:29:18+0800
14小时前
查看轨道信息
半长轴: 6861.164km
偏心率: 0.0001628
轨道倾角: 43.004°
近地点辐角 266.121°
升交点赤经 80.692°
平近点角 93.945°
近地点: 481.91km
远地点: 484.144km
周期: 94.266分钟
每日圈数: 15.275877
Detailed Information
固有亮度:
5
最大亮度:
2.5
卫星平台:
Starlink V1.0
覆盖范围:
全球
运营商:
太空探索技术公司
运营商所在国:
美国
制造商(研发单位):
太空探索技术公司
制造商所在国:
美国
使用方式:
暂无
Satellite Introduction
Starlink 计划是 SpaceX 推出的全球卫星互联网项目,通过发射低轨道卫星,为全球尤其是偏远地区提供高速、低延迟的互联网服务。自 2019 年起,Starlink 已部署数千颗卫星,旨在缩小全球数字鸿沟,推动互联网普及。该项目还为军事、航空等行业提供通信支持,带来广泛经济效益。
2D Orbit Map
3D Orbit Map
Orbit Altitude Analysis Chart
Orbit Inclination Analysis Chart
Orbit Comprehensive Analysis Chart
View Comprehensive Chart
Conjunction Data List
Event ID Objects TCA Miss Dist (km) Collision Risk Probability Collision Risk Index (CRI) Action
CDM_260903-122106-356506-364421
2026-09-03T
12:21:29+0000
0.127 km
中距离
9.411601E-4 高风险 0.94
CDM_260905-073306-257306-364421
2026-09-05T
07:33:20+0000
0.866 km
远距离
2.401142E-5 中风险 0.63
CDM_260903-135506-356506-364421
2026-09-03T
13:55:38+0000
1.457 km
极远距离
4.712499E-6 低风险 0.48
CDM_260905-055906-257306-364421
2026-09-05T
05:59:11+0000
1.559 km
极远距离
3.318544E-6 低风险 0.45
CDM_260903-104706-356506-364421
2026-09-03T
10:47:20+0000
1.694 km
极远距离
2.960729E-6 低风险 0.44